This is the latest recevied weather packets stored in our database for station/object S56WDN-10. If no packets are shown the sender has not sent any weather packets the latest 10 day(s).
| Time | Temp. | Humidity | Pressure | Rain* | Wind** | Luminosity | Snow |
|---|---|---|---|---|---|---|---|
| 1778143012 | 17.78° C | 74% | 1013.3 hPa | 0 mm | - | - | - |
| 1778142712 | 17.22° C | 76% | 1013.3 hPa | 0 mm | - | - | - |
| 1778142412 | 17.22° C | 77% | 1013.3 hPa | 0 mm | - | - | - |
| 1778142112 | 17.22° C | 78% | 1013.2 hPa | 0 mm | - | - | - |
| 1778141812 | 16.67° C | 78% | 1013.1 hPa | 0 mm | - | - | - |
| 1778141512 | 15.56° C | 80% | 1013.3 hPa | 0 mm | - | - | - |
| 1778141212 | 15.56° C | 80% | 1013.3 hPa | 0 mm | - | - | - |
| 1778140912 | 15.56° C | 81% | 1013.3 hPa | 0 mm | - | - | - |
| 1778140612 | 15° C | 81% | 1013.3 hPa | 0 mm | - | - | - |
| 1778140312 | 15° C | 82% | 1013.3 hPa | 0 mm | - | - | - |
| 1778140012 | 15° C | 82% | 1013.3 hPa | 0 mm | - | - | - |
| 1778139712 | 14.44° C | 82% | 1013.2 hPa | 0 mm | - | - | - |
| 1778139412 | 14.44° C | 83% | 1013.3 hPa | 0 mm | - | - | - |
| 1778139112 | 14.44° C | 83% | 1013.3 hPa | 0 mm | - | - | - |
| 1778138812 | 14.44° C | 83% | 1013.3 hPa | 0 mm | - | - | - |
| 1778138512 | 13.89° C | 84% | 1013.2 hPa | 0 mm | - | - | - |
| 1778138212 | 13.89° C | 84% | 1013.2 hPa | 0 mm | - | - | - |
| 1778137912 | 13.89° C | 85% | 1013.2 hPa | 0 mm | - | - | - |
| 1778137612 | 13.89° C | 85% | 1013.2 hPa | 0 mm | - | - | - |
| 1778137312 | 13.89° C | 85% | 1013.2 hPa | 0 mm | - | - | - |
| 1778137012 | 13.33° C | 85% | 1013.2 hPa | 0 mm | - | - | - |
| 1778136712 | 13.33° C | 85% | 1013.1 hPa | 0 mm | - | - | - |
| 1778136412 | 13.33° C | 85% | 1013.2 hPa | 0 mm | - | - | - |
| 1778136112 | 13.33° C | 85% | 1013 hPa | 0 mm | - | - | - |
| 1778135812 | 13.33° C | 85% | 1013.2 hPa | 0 mm | - | - | - |
* Rain latest hour (hover to see other rain measurements)
** Current wind speed in m/s (hover to see current wind gust speed)